NOZ602 ENGM-ENBR

Flight info

Callsign NOZ602
Flight time 0h 50m
Altitude 28000
Route ATLAP DCT AGEKU DCT PESUR
Aircraft B738/M-SDE2E3GHIJ1LRWXY/LB1

Departure

Time 2026-05-04 21:46
Airport Oslo-Gardermoen International Airport (ENGM)

Arrival

Time 2026-05-04 22:37
Airport Bergen Airport, Flesland (ENBR)
Time Latitude Longitude Altitude Speed Heading
2026-05-04 21:06 60.19564 11.09427 684 ft 0 kts 196°
2026-05-04 21:30 60.19580 11.09436 684 ft 4 kts 196°
2026-05-04 21:30 60.19605 11.09450 684 ft 2 kts 196°
2026-05-04 21:30 60.19606 11.09451 684 ft 3 kts 196°
2026-05-04 21:38 60.19605 11.09450 684 ft 1 kts 198°
2026-05-04 21:38 60.19606 11.09436 661 ft 1 kts 287°
2026-05-04 21:38 60.19619 11.09430 659 ft 5 kts 347°
2026-05-04 21:38 60.19680 11.09378 682 ft 13 kts 304°
2026-05-04 21:39 60.19709 11.09211 682 ft 12 kts 285°
2026-05-04 21:39 60.19732 11.09044 682 ft 12 kts 286°
2026-05-04 21:39 60.19757 11.08874 676 ft 14 kts 286°
2026-05-04 21:39 60.19774 11.08751 676 ft 7 kts 281°
2026-05-04 21:40 60.19756 11.08669 676 ft 7 kts 211°
2026-05-04 21:40 60.19711 11.08635 676 ft 7 kts 197°
2026-05-04 21:40 60.19653 11.08601 677 ft 11 kts 197°
2026-05-04 21:40 60.19570 11.08553 677 ft 15 kts 196°
2026-05-04 21:41 60.19460 11.08490 676 ft 17 kts 195°
2026-05-04 21:41 60.19351 11.08427 673 ft 16 kts 196°
2026-05-04 21:41 60.19247 11.08366 673 ft 15 kts 196°
2026-05-04 21:41 60.19143 11.08307 672 ft 16 kts 196°
2026-05-04 21:42 60.19037 11.08245 672 ft 16 kts 195°
2026-05-04 21:42 60.18934 11.08187 671 ft 15 kts 196°
2026-05-04 21:42 60.18836 11.08130 671 ft 14 kts 195°
2026-05-04 21:42 60.18742 11.08076 668 ft 14 kts 196°
2026-05-04 21:43 60.18653 11.08023 670 ft 13 kts 197°
2026-05-04 21:43 60.18568 11.07975 669 ft 12 kts 203°
2026-05-04 21:43 60.18539 11.07878 667 ft 9 kts 275°
2026-05-04 21:43 60.18557 11.07739 664 ft 11 kts 286°
2026-05-04 21:44 60.18566 11.07675 664 ft 2 kts 287°
2026-05-04 21:44 60.18566 11.07673 664 ft 0 kts 287°
2026-05-04 21:45 60.18581 11.07582 665 ft 11 kts 291°
2026-05-04 21:45 60.18630 11.07476 664 ft 11 kts 337°
2026-05-04 21:45 60.18716 11.07496 663 ft 20 kts 17°
2026-05-04 21:45 60.18870 11.07587 667 ft 0 kts 16°
2026-05-04 21:46 60.18884 11.07595 667 ft 17 kts 16°
2026-05-04 21:46 60.19266 11.07814 671 ft 96 kts 16°
2026-05-04 21:46 60.20131 11.08300 699 ft 158 kts 14°
2026-05-04 21:46 60.21241 11.09019 1387 ft 164 kts 14°
2026-05-04 21:47 60.22259 11.09690 2626 ft 144 kts
2026-05-04 21:47 60.23205 11.10194 3543 ft 142 kts
2026-05-04 21:47 60.24273 11.10734 3906 ft 175 kts
2026-05-04 21:47 60.25550 11.11352 4189 ft 204 kts
2026-05-04 21:48 60.27022 11.11198 4478 ft 221 kts 347°
2026-05-04 21:48 60.28575 11.10671 5030 ft 231 kts 348°
2026-05-04 21:48 60.30101 11.09624 5581 ft 241 kts 324°
2026-05-04 21:48 60.31199 11.06985 6189 ft 254 kts 295°
2026-05-04 21:49 60.31480 11.03466 7107 ft 259 kts 264°
2026-05-04 21:49 60.30848 11.00115 8153 ft 261 kts 243°
2026-05-04 21:49 60.30290 10.96673 9106 ft 260 kts 269°
2026-05-04 21:49 60.30197 10.93036 10016 ft 263 kts 256°
2026-05-04 21:50 60.29246 10.89759 10496 ft 288 kts 229°
2026-05-04 21:50 60.27695 10.86913 10736 ft 314 kts 227°
2026-05-04 21:50 60.26104 10.83796 11324 ft 322 kts 230°
2026-05-04 21:50 60.24582 10.80478 12279 ft 319 kts 233°
2026-05-04 21:51 60.23148 10.77083 13355 ft 316 kts 236°
2026-05-04 21:51 60.21792 10.73685 14239 ft 316 kts 238°
2026-05-04 21:51 60.20423 10.70175 14956 ft 320 kts 238°
2026-05-04 21:51 60.19049 10.66637 15780 ft 320 kts 238°
2026-05-04 21:52 60.17785 10.63000 16584 ft 314 kts 248°
2026-05-04 21:52 60.16947 10.58979 17383 ft 311 kts 255°
2026-05-04 21:52 60.16375 10.54788 18169 ft 310 kts 262°
2026-05-04 21:52 60.16170 10.50477 18786 ft 312 kts 267°
2026-05-04 21:53 60.16079 10.46110 19339 ft 316 kts 268°
2026-05-04 21:53 60.16000 10.41676 19925 ft 319 kts 268°
2026-05-04 21:53 60.15919 10.37209 20530 ft 321 kts 268°
2026-05-04 21:53 60.15833 10.32763 21164 ft 323 kts 267°
2026-05-04 21:54 60.15740 10.28275 21968 ft 320 kts 267°
2026-05-04 21:54 60.15645 10.23828 22817 ft 316 kts 267°
2026-05-04 21:54 60.15548 10.19425 23540 ft 315 kts 266°
2026-05-04 21:54 60.15447 10.15022 24127 ft 314 kts 266°
2026-05-04 21:55 60.15346 10.10634 24729 ft 313 kts 266°
2026-05-04 21:55 60.15244 10.06269 25357 ft 312 kts 266°
2026-05-04 21:55 60.15143 10.01990 25962 ft 311 kts 266°
2026-05-04 21:55 60.15039 9.97660 26531 ft 311 kts 266°
2026-05-04 21:56 60.14934 9.93316 27169 ft 309 kts 266°
2026-05-04 21:56 60.14826 9.88991 27699 ft 310 kts 266°
2026-05-04 21:56 60.14718 9.84702 27750 ft 309 kts 266°
2026-05-04 21:56 60.14625 9.80395 27781 ft 310 kts 268°
2026-05-04 21:57 60.14734 9.76053 27782 ft 312 kts 272°
2026-05-04 21:57 60.14914 9.71703 27790 ft 312 kts 272°
2026-05-04 21:57 60.15103 9.67358 27782 ft 311 kts 272°
2026-05-04 21:57 60.15286 9.63087 27801 ft 310 kts 272°
2026-05-04 21:58 60.15469 9.58760 27789 ft 310 kts 272°
2026-05-04 21:58 60.15649 9.54437 27800 ft 309 kts 272°
2026-05-04 21:58 60.15825 9.50118 27806 ft 310 kts 272°
2026-05-04 21:58 60.15996 9.45853 27802 ft 310 kts 272°
2026-05-04 21:59 60.16168 9.41510 27802 ft 311 kts 272°
2026-05-04 21:59 60.16339 9.37185 27809 ft 311 kts 272°
2026-05-04 21:59 60.16508 9.32846 27829 ft 310 kts 272°
2026-05-04 21:59 60.16675 9.28515 27824 ft 311 kts 272°
2026-05-04 22:00 60.16841 9.24175 27810 ft 311 kts 272°
2026-05-04 22:00 60.17005 9.19845 27810 ft 311 kts 272°
2026-05-04 22:00 60.17165 9.15562 27823 ft 311 kts 272°
2026-05-04 22:00 60.17327 9.11216 27825 ft 311 kts 272°
2026-05-04 22:01 60.17487 9.06879 27836 ft 310 kts 272°
2026-05-04 22:01 60.17644 9.02558 27838 ft 311 kts 272°
2026-05-04 22:01 60.17801 8.98225 27815 ft 311 kts 272°
2026-05-04 22:01 60.17957 8.93893 27805 ft 310 kts 272°
2026-05-04 22:02 60.18111 8.89576 27832 ft 310 kts 272°
2026-05-04 22:02 60.18263 8.85242 27828 ft 310 kts 272°
2026-05-04 22:02 60.18412 8.80969 27834 ft 310 kts 272°
2026-05-04 22:02 60.18562 8.76637 27841 ft 310 kts 272°
2026-05-04 22:03 60.18710 8.72313 27837 ft 309 kts 272°
2026-05-04 22:03 60.18856 8.68003 27832 ft 310 kts 272°
2026-05-04 22:03 60.19000 8.63710 27834 ft 310 kts 272°
2026-05-04 22:03 60.19143 8.59388 27836 ft 311 kts 272°
2026-05-04 22:04 60.19286 8.55042 27855 ft 311 kts 272°
2026-05-04 22:04 60.19429 8.50679 27861 ft 311 kts 272°
2026-05-04 22:04 60.19569 8.46330 27853 ft 312 kts 272°
2026-05-04 22:04 60.19708 8.42032 27857 ft 312 kts 272°
2026-05-04 22:05 60.19846 8.37674 27859 ft 311 kts 271°
2026-05-04 22:05 60.19980 8.33417 27839 ft 300 kts 271°
2026-05-04 22:05 60.20108 8.29291 27513 ft 294 kts 271°
2026-05-04 22:05 60.20233 8.25213 27155 ft 290 kts 271°
2026-05-04 22:06 60.20356 8.21170 26722 ft 289 kts 271°
2026-05-04 22:06 60.20477 8.17150 26345 ft 286 kts 271°
2026-05-04 22:06 60.20596 8.13183 26063 ft 282 kts 271°
2026-05-04 22:06 60.20712 8.09269 25807 ft 278 kts 271°
2026-05-04 22:07 60.20787 8.06715 25637 ft 275 kts 271°
2026-05-04 22:07 60.20934 8.01632 25334 ft 275 kts 271°
2026-05-04 22:07 60.21045 7.97762 25099 ft 279 kts 271°
2026-05-04 22:07 60.21156 7.93847 24862 ft 281 kts 271°
2026-05-04 22:08 60.21229 7.91252 24701 ft 280 kts 271°
2026-05-04 22:08 60.21338 7.87351 24456 ft 277 kts 271°
2026-05-04 22:08 60.21445 7.83485 24209 ft 275 kts 271°
2026-05-04 22:08 60.21550 7.79648 23977 ft 274 kts 271°
2026-05-04 22:09 60.21654 7.75825 23754 ft 273 kts 271°
2026-05-04 22:09 60.21755 7.72062 23515 ft 272 kts 271°
2026-05-04 22:09 60.21856 7.68274 23246 ft 271 kts 271°
2026-05-04 22:09 60.21955 7.64500 22973 ft 269 kts 271°
2026-05-04 22:10 60.22052 7.60740 22693 ft 268 kts 271°
2026-05-04 22:10 60.22148 7.56988 22426 ft 268 kts 271°
2026-05-04 22:10 60.22243 7.53250 22153 ft 266 kts 271°
2026-05-04 22:10 60.22337 7.49522 21896 ft 265 kts 271°
2026-05-04 22:11 60.22428 7.45872 21627 ft 264 kts 271°
2026-05-04 22:11 60.22518 7.42181 21368 ft 263 kts 271°
2026-05-04 22:11 60.22607 7.38513 21104 ft 262 kts 271°
2026-05-04 22:11 60.22695 7.34863 20869 ft 260 kts 271°
2026-05-04 22:12 60.22780 7.31287 20619 ft 258 kts 271°
2026-05-04 22:12 60.22864 7.27692 20360 ft 256 kts 272°
2026-05-04 22:12 60.22947 7.24132 20114 ft 254 kts 272°
2026-05-04 22:12 60.23028 7.20596 19880 ft 252 kts 272°
2026-05-04 22:13 60.23107 7.17064 19609 ft 251 kts 272°
2026-05-04 22:13 60.23186 7.13563 19373 ft 250 kts 272°
2026-05-04 22:13 60.23264 7.10081 19132 ft 248 kts 272°
2026-05-04 22:13 60.23339 7.06631 18894 ft 246 kts 272°
2026-05-04 22:14 60.23410 7.03235 18638 ft 244 kts 272°
2026-05-04 22:14 60.23484 6.99823 18423 ft 242 kts 272°
2026-05-04 22:14 60.23557 6.96415 18159 ft 242 kts 272°
2026-05-04 22:14 60.23627 6.93033 17896 ft 241 kts 272°
2026-05-04 22:15 60.23696 6.89661 17607 ft 240 kts 272°
2026-05-04 22:15 60.23764 6.86319 17342 ft 238 kts 272°
2026-05-04 22:15 60.23830 6.83089 17113 ft 232 kts 272°
2026-05-04 22:15 60.23895 6.79861 16806 ft 227 kts 272°
2026-05-04 22:16 60.23935 6.76701 16506 ft 225 kts 272°
2026-05-04 22:16 60.24004 6.73566 16232 ft 223 kts 273°
2026-05-04 22:16 60.24071 6.70512 15989 ft 220 kts 273°
2026-05-04 22:16 60.24133 6.67419 15729 ft 222 kts 273°
2026-05-04 22:17 60.24190 6.64279 15464 ft 228 kts 273°
2026-05-04 22:17 60.24252 6.60995 15108 ft 239 kts 274°
2026-05-04 22:17 60.24298 6.57630 14778 ft 243 kts 271°
2026-05-04 22:17 60.24230 6.54199 14388 ft 243 kts 269°
2026-05-04 22:18 60.24127 6.50802 14072 ft 242 kts 270°
2026-05-04 22:18 60.24024 6.47480 13763 ft 240 kts 269°
2026-05-04 22:18 60.23922 6.44135 13465 ft 239 kts 269°
2026-05-04 22:18 60.23821 6.40794 13151 ft 237 kts 269°
2026-05-04 22:19 60.23722 6.37494 12884 ft 234 kts 269°
2026-05-04 22:19 60.23625 6.34226 12578 ft 232 kts 269°
2026-05-04 22:19 60.23532 6.30969 12275 ft 232 kts 269°
2026-05-04 22:19 60.23434 6.27779 12036 ft 230 kts 269°
2026-05-04 22:20 60.23337 6.24521 11733 ft 234 kts 269°
2026-05-04 22:20 60.23242 6.21205 11426 ft 241 kts 269°
2026-05-04 22:20 60.23141 6.17780 11112 ft 247 kts 269°
2026-05-04 22:20 60.23036 6.14302 10811 ft 249 kts 269°
2026-05-04 22:21 60.22929 6.10842 10493 ft 247 kts 269°
2026-05-04 22:21 60.22823 6.07399 10194 ft 246 kts 269°
2026-05-04 22:21 60.22717 6.04001 10060 ft 238 kts 269°
2026-05-04 22:21 60.22616 6.00763 9902 ft 232 kts 269°
2026-05-04 22:22 60.22515 5.97508 9591 ft 231 kts 269°
2026-05-04 22:22 60.22413 5.94303 9325 ft 228 kts 269°
2026-05-04 22:22 60.22312 5.91143 9087 ft 225 kts 269°
2026-05-04 22:22 60.22210 5.87993 8806 ft 232 kts 269°
2026-05-04 22:23 60.22008 5.84699 8517 ft 240 kts 254°
2026-05-04 22:23 60.21204 5.81738 8301 ft 246 kts 243°
2026-05-04 22:23 60.20330 5.78770 8203 ft 245 kts 244°
2026-05-04 22:23 60.19485 5.75857 8080 ft 237 kts 244°
2026-05-04 22:24 60.18450 5.73318 7934 ft 238 kts 219°
2026-05-04 22:24 60.16930 5.72178 7899 ft 239 kts 192°
2026-05-04 22:24 60.15260 5.72435 7900 ft 247 kts 168°
2026-05-04 22:24 60.13603 5.73583 7939 ft 256 kts 163°
2026-05-04 22:25 60.11891 5.74641 7933 ft 256 kts 179°
2026-05-04 22:25 60.10141 5.74648 7964 ft 250 kts 187°
2026-05-04 22:25 60.08391 5.74580 7942 ft 252 kts 186°
2026-05-04 22:25 60.06645 5.74461 7876 ft 251 kts 194°
2026-05-04 22:26 60.04996 5.73438 7706 ft 248 kts 207°
2026-05-04 22:26 60.03378 5.72197 7471 ft 247 kts 206°
2026-05-04 22:26 60.01774 5.70990 7287 ft 244 kts 208°
2026-05-04 22:26 60.00388 5.69212 7117 ft 231 kts 227°
2026-05-04 22:27 59.99206 5.67107 6931 ft 230 kts 226°
2026-05-04 22:27 59.97977 5.65040 6716 ft 230 kts 225°
2026-05-04 22:27 59.96782 5.62904 6550 ft 231 kts 237°
2026-05-04 22:27 59.95983 5.60132 6354 ft 230 kts 247°
2026-05-04 22:28 59.95271 5.57259 6127 ft 229 kts 255°
2026-05-04 22:28 59.95178 5.54210 5913 ft 218 kts 286°
2026-05-04 22:28 59.95820 5.51584 5726 ft 212 kts 310°
2026-05-04 22:28 59.96950 5.49707 5553 ft 215 kts 332°
2026-05-04 22:29 59.98363 5.48704 5386 ft 215 kts 340°
2026-05-04 22:29 59.99802 5.47815 5189 ft 217 kts 340°
2026-05-04 22:29 60.01250 5.46919 5010 ft 219 kts 341°
2026-05-04 22:29 60.02711 5.46013 4818 ft 220 kts 341°
2026-05-04 22:30 60.04167 5.45107 4615 ft 219 kts 341°
2026-05-04 22:30 60.05614 5.44204 4433 ft 216 kts 341°
2026-05-04 22:30 60.07022 5.43325 4243 ft 215 kts 341°
2026-05-04 22:30 60.08441 5.42380 4080 ft 213 kts 333°
2026-05-04 22:31 60.09483 5.40457 4026 ft 199 kts 298°
2026-05-04 22:31 60.09955 5.37967 3982 ft 184 kts 283°
2026-05-04 22:31 60.10173 5.35553 3976 ft 168 kts 282°
2026-05-04 22:31 60.10380 5.33282 3978 ft 164 kts 282°
2026-05-04 22:32 60.10580 5.31046 3981 ft 162 kts 283°
2026-05-04 22:32 60.11067 5.29110 3977 ft 156 kts 320°
2026-05-04 22:32 60.12108 5.28072 3392 ft 179 kts 341°
2026-05-04 22:32 60.13283 5.27363 3128 ft 174 kts 342°
2026-05-04 22:33 60.14437 5.26831 2883 ft 169 kts 347°
2026-05-04 22:33 60.15579 5.26433 2662 ft 163 kts 348°
2026-05-04 22:33 60.16674 5.26068 2460 ft 157 kts 348°
2026-05-04 22:33 60.17742 5.25711 2254 ft 156 kts 348°
2026-05-04 22:34 60.18817 5.25351 2038 ft 155 kts 349°
2026-05-04 22:34 60.19859 5.25002 1837 ft 150 kts 349°
2026-05-04 22:34 60.20860 5.24667 1671 ft 145 kts 348°
2026-05-04 22:34 60.21865 5.24330 1458 ft 147 kts 349°
2026-05-04 22:35 60.22872 5.23993 1251 ft 144 kts 349°
2026-05-04 22:35 60.23826 5.23673 1065 ft 136 kts 349°
2026-05-04 22:35 60.24747 5.23360 865 ft 131 kts 349°
2026-05-04 22:35 60.25684 5.22984 675 ft 142 kts 351°
2026-05-04 22:36 60.26652 5.22677 486 ft 140 kts 352°
2026-05-04 22:36 60.27597 5.22383 346 ft 133 kts 352°
2026-05-04 22:36 60.28499 5.22105 194 ft 130 kts 352°
2026-05-04 22:36 60.29268 5.21842 173 ft 84 kts 351°
2026-05-04 22:37 60.29644 5.21724 173 ft 29 kts 351°
2026-05-04 22:37 60.29708 5.21786 173 ft 10 kts 64°
2026-05-04 22:37 60.29720 5.21906 170 ft 0 kts 82°
2026-05-04 22:37 60.29720 5.21908 170 ft 0 kts 82°
2026-05-04 22:38 60.29720 5.21911 170 ft 1 kts 83°
2026-05-04 22:38 60.29707 5.21995 169 ft 8 kts 135°
2026-05-04 22:38 60.29655 5.22034 169 ft 8 kts 169°
2026-05-04 22:39 60.29601 5.22052 170 ft 8 kts 171°
2026-05-04 22:39 60.29549 5.22069 174 ft 7 kts 171°
2026-05-04 22:39 60.29499 5.22085 175 ft 7 kts 171°
2026-05-04 22:39 60.29411 5.22115 175 ft 17 kts 170°
2026-05-04 22:40 60.29297 5.22155 178 ft 16 kts 170°
2026-05-04 22:40 60.29186 5.22193 175 ft 17 kts 170°
2026-05-04 22:40 60.29071 5.22233 173 ft 17 kts 170°
2026-05-04 22:40 60.28957 5.22270 173 ft 16 kts 171°
2026-05-04 22:41 60.28847 5.22305 173 ft 16 kts 171°
2026-05-04 22:41 60.28747 5.22340 173 ft 11 kts 170°
2026-05-04 22:41 60.28696 5.22374 173 ft 7 kts 141°
2026-05-04 22:41 60.28697 5.22467 173 ft 7 kts 65°
2026-05-04 22:42 60.28711 5.22560 173 ft 7 kts 81°
2026-05-04 22:42 60.28718 5.22655 173 ft 7 kts 81°
2026-05-04 22:42 60.28701 5.22738 173 ft 7 kts 134°
2026-05-04 22:42 60.28689 5.22810 173 ft 5 kts 87°
2026-05-04 22:43 60.28693 5.22877 173 ft 2 kts 81°
2026-05-04 22:43 60.28695 5.22897 173 ft 1 kts 81°
2026-05-04 22:43 60.28695 5.22907 173 ft 0 kts 81°